This demonstration page uses our WeatherBlox Daily Observations layout. Learn more.

Hourly Observations for February 16, 2017

Temp ( °F °C ) Dew Point ( °F °C ) Humidity (%) Winds ( mph kmh ) Pressure ( in mb ) Visibility ( mi km ) Precip ( " mm )
12:15 am 00:15 Mostly Cloudy 36 2 23 -5 60 60 undefined N/A 29.68 1005 10 16.09344 0 0
12:35 am 00:35 Mostly Cloudy with Scattered Snow Showers 36 2 27 -3 70 70 NNW 21 33 29.71 1006 10 16.09344 0 0
12:55 am 00:55 Cloudy 34 1 28 -2 81 81 WNW 23 37 29.71 1006 10 16.09344 0 0
1:15 am 01:15 Mostly Cloudy 34 1 27 -3 75 75 WNW 22 35 29.68 1005 10 16.09344 0 0
1:35 am 01:35 Clear 34 1 23 -5 65 65 NW 18 30 29.71 1006 10 16.09344 0 0
1:55 am 01:55 Partly Cloudy 34 1 23 -5 65 65 NW 17 28 29.71 1006 10 16.09344 0 0
2:15 am 02:15 Partly Cloudy 32 0 21 -6 64 64 NW 14 22 29.71 1006 10 16.09344 0 0
2:35 am 02:35 Clear 32 0 19 -7 60 60 NW 15 24 29.71 1006 10 16.09344 0 0
2:55 am 02:55 Partly Cloudy 32 0 19 -7 60 60 WNW 20 31 29.71 1006 10 16.09344 0 0
3:15 am 03:15 Clear 32 0 19 -7 60 60 WNW 10 17 29.71 1006 10 16.09344 0 0
3:35 am 03:35 Mostly Cloudy 32 0 19 -7 60 60 NW 14 22 29.71 1006 10 16.09344 0 0
3:55 am 03:55 Partly Cloudy 32 0 19 -7 60 60 NW 13 20 29.71 1006 10 16.09344 0 0
4:15 am 04:15 Mostly Cloudy 32 0 19 -7 60 60 WNW 7 11 29.71 1006 10 16.09344 0 0
4:35 am 04:35 Cloudy 32 0 21 -6 64 64 undefined N/A 29.74 1007 10 16.09344 0 0
4:55 am 04:55 Mostly Cloudy 32 0 21 -6 64 64 NW 10 17 29.74 1007 10 16.09344 0 0
5:15 am 05:15 Mostly Cloudy 32 0 21 -6 64 64 N 10 17 29.74 1007 10 16.09344 0 0
5:35 am 05:35 Cloudy 32 0 23 -5 69 69 NNW 10 17 29.74 1007 10 16.09344 0 0
5:55 am 05:55 Cloudy 32 0 23 -5 69 69 NNW 12 19 29.77 1008 10 16.09344 0 0
6:15 am 06:15 Cloudy 32 0 23 -5 69 69 NNW 8 13 29.77 1008 10 16.09344 0 0
6:35 am 06:35 Cloudy 32 0 23 -5 69 69 NNW 9 15 29.77 1008 10 16.09344 0 0
6:55 am 06:55 Cloudy 32 0 23 -5 69 69 W 6 9 29.77 1008 10 16.09344 0 0
7:15 am 07:15 Cloudy 32 0 23 -5 69 69 W 12 19 29.8 1009 10 16.09344 0 0
7:35 am 07:35 Cloudy 32 0 25 -4 75 75 WNW 16 26 29.8 1009 10 16.09344 0 0
7:55 am 07:55 Cloudy 32 0 27 -3 80 80 NW 12 19 29.8 1009 10 16.09344 0 0
8:15 am 08:15 Cloudy 32 0 27 -3 80 80 NW 12 19 29.83 1010 10 16.09344 0 0
8:35 am 08:35 Cloudy 34 1 25 -4 70 70 WNW 10 17 29.83 1010 10 16.09344 0 0
8:55 am 08:55 Cloudy 34 1 23 -5 65 65 WNW 14 22 29.83 1010 10 16.09344 0 0
9:15 am 09:15 Cloudy 36 2 23 -5 60 60 NW 12 19 29.83 1010 10 16.09344 0 0
9:35 am 09:35 Cloudy 37 3 23 -5 56 56 undefined N/A 29.83 1010 10 16.09344 0 0
9:55 am 09:55 Mostly Cloudy 37 3 21 -6 52 52 NW 21 33 29.83 1010 10 16.09344 0 0
10:15 am 10:15 Mostly Cloudy 37 3 19 -7 48 48 NW 24 39 29.83 1010 10 16.09344 0 0
10:35 am 10:35 Cloudy 36 2 18 -8 48 48 NW 17 28 29.83 1010 10 16.09344 0 0
10:55 am 10:55 Cloudy 36 2 21 -6 56 56 NW 20 31 29.83 1010 10 16.09344 0 0
11:15 am 11:15 Cloudy 37 3 19 -7 48 48 NW 22 35 29.83 1010 10 16.09344 0 0
11:35 am 11:35 Cloudy 37 3 19 -7 48 48 WNW 22 35 29.83 1010 10 16.09344 0 0
11:55 am 11:55 Cloudy 37 3 18 -8 45 45 NW 28 44 29.83 1010 10 16.09344 0 0
12:15 pm 12:15 Cloudy 37 3 18 -8 45 45 WNW 23 37 29.83 1010 10 16.09344 0 0
12:35 pm 12:35 Cloudy 37 3 18 -8 45 45 NNW 28 44 29.83 1010 10 16.09344 0 0
12:55 pm 12:55 Cloudy 37 3 18 -8 45 45 NNW 23 37 29.83 1010 10 16.09344 0 0
1:15 pm 13:15 Cloudy 36 2 19 -7 52 52 WNW 13 20 29.83 1010 10 16.09344 0 0
1:35 pm 13:35 Cloudy 37 3 19 -7 48 48 NW 18 30 29.83 1010 10 16.09344 0 0
1:55 pm 13:55 Cloudy 37 3 19 -7 48 48 NW 24 39 29.83 1010 10 16.09344 0 0
2:15 pm 14:15 Cloudy 37 3 19 -7 48 48 NW 23 37 29.83 1010 10 16.09344 0 0
2:35 pm 14:35 Cloudy 37 3 19 -7 48 48 NW 23 37 29.85 1011 10 16.09344 0 0
2:55 pm 14:55 Cloudy 37 3 19 -7 48 48 NW 21 33 29.85 1011 10 16.09344 0 0
3:15 pm 15:15 Cloudy 39 4 21 -6 48 48 WNW 22 35 29.85 1011 10 16.09344 0 0
3:35 pm 15:35 Mostly Cloudy 37 3 19 -7 48 48 NW 22 35 29.85 1011 10 16.09344 0 0
3:55 pm 15:55 Mostly Cloudy 37 3 19 -7 48 48 NW 20 31 29.85 1011 10 16.09344 0 0
4:15 pm 16:15 Partly Cloudy 37 3 18 -8 45 45 NW 18 30 29.88 1012 10 16.09344 0 0
4:35 pm 16:35 Sunny 37 3 18 -8 45 45 NW 15 24 29.88 1012 10 16.09344 0 0
4:55 pm 16:55 Sunny 37 3 18 -8 45 45 NW 14 22 29.88 1012 10 16.09344 0 0
5:15 pm 17:15 Sunny 36 2 18 -8 48 48 NW 16 26 29.91 1013 10 16.09344 0 0
5:35 pm 17:35 Sunny 36 2 18 -8 48 48 NW 15 24 29.91 1013 10 16.09344 0 0
5:55 pm 17:55 Clear 34 1 19 -7 56 56 NW 15 24 29.91 1013 10 16.09344 0 0
6:15 pm 18:15 Clear 34 1 19 -7 56 56 WNW 13 20 29.91 1013 10 16.09344 0 0
6:35 pm 18:35 Clear 34 1 19 -7 56 56 NW 7 11 29.94 1014 10 16.09344 0 0
6:55 pm 18:55 Clear 34 1 18 -8 51 51 NNW 12 19 29.94 1014 10 16.09344 0 0
7:15 pm 19:15 Clear 34 1 18 -8 51 51 NW 17 28 29.94 1014 10 16.09344 0 0
7:35 pm 19:35 Clear 34 1 18 -8 51 51 NNW 15 24 29.94 1014 10 16.09344 0 0
7:55 pm 19:55 Clear 32 0 19 -7 60 60 NNW 16 26 29.94 1014 10 16.09344 0 0
8:15 pm 20:15 Clear 32 0 19 -7 60 60 NNW 12 19 29.94 1014 10 16.09344 0 0
8:35 pm 20:35 Clear 32 0 19 -7 60 60 NNW 9 15 29.94 1014 10 16.09344 0 0
8:55 pm 20:55 Clear 32 0 19 -7 60 60 NW 12 19 29.94 1014 10 16.09344 0 0
9:15 pm 21:15 Clear 32 0 19 -7 60 60 NNW 12 19 29.94 1014 10 16.09344 0 0
9:35 pm 21:35 Clear 32 0 19 -7 60 60 NNW 7 11 29.94 1014 10 16.09344 0 0
9:55 pm 21:55 Clear 30 -1 19 -7 64 64 WNW 8 13 29.97 1015 10 16.09344 0 0
10:15 pm 22:15 Clear 30 -1 19 -7 64 64 W 5 7 29.97 1015 10 16.09344 0 0
10:35 pm 22:35 Clear 30 -1 19 -7 64 64 Calm 29.97 1015 10 16.09344 0 0
10:55 pm 22:55 Clear 30 -1 19 -7 64 64 Calm 29.97 1015 10 16.09344 0 0
11:15 pm 23:15 Clear 30 -1 19 -7 64 64 Calm 29.97 1015 10 16.09344 0 0
11:35 pm 23:35 Clear 30 -1 19 -7 64 64 Calm 29.97 1015 10 16.09344 0 0
11:55 pm 23:55 Clear 28 -2 19 -7 69 69 Calm 29.97 1015 10 16.09344 0 0

Powered by AerisWeather